Flag for U.S.A. Weather past 2 weeks in Butte, Montana, U.S.A.

Now
36 °F

Overcast.


Feels Like: 36 °F
Forecast: 28 / 44 °F
Wind: No wind

Location: Mooney Airport


UV Index: 0 (Low)

Visibility: 10 mi


Pressure: 29.86 "Hg

Humidity: 57%

Dew point: 22 °F

Location of ButteLocation

Historic Weather in Butte

°F

Butte temperature yesterday

Maximum temperature yesterday: 41 °F (at 5:53 PM)
Minimum temperature yesterday: 29 °F (at 2:53 AM)
Average temperature yesterday: 34 °F

Past Weeks' High & Low Weather Summary

 TemperatureHumidityPressure
High64 °F (Apr 21, 3:53 PM)97% (Apr 22, 9:53 PM)30.44 "Hg (Apr 22, 9:53 PM)
Low14 °F (Apr 14, 5:53 AM)10% (Apr 14, 4:53 PM)29.44 "Hg (Apr 22, 2:53 PM)
Average40 °F49%29.96 "Hg
* Reported Apr 9 6:53 AM — Apr 24 5:53 AM, Butte, Weather by CustomWeather, © 2014

Note: Actual official high and low records may vary slightly from our data, if they occured in-between our weather recording intervals... More about our weather records

Advertising

Historic Weather Conditions — Data for Previous 24 hours

 ConditionsComfort  
Time TempWeatherWind HumidityBarometerVisibility
5:53 AM
Apr 24
36 °FOvercast.No wind57%29.86 "Hg10 mi
4:53 AM36 °FOvercast.5 mph59%29.88 "Hg10 mi
3:53 AM37 °FPassing clouds.5 mph54%29.86 "Hg10 mi
2:53 AM36 °FOvercast.3 mph54%29.87 "Hg10 mi
1:53 AM36 °FMostly cloudy.No wind59%29.89 "Hg10 mi
12:53 AM37 °FOvercast.6 mph54%29.88 "Hg10 mi
11:53 PM
Apr 23
37 °FOvercast.10 mph54%29.88 "Hg10 mi
10:53 PM37 °FOvercast.12 mph54%29.89 "Hg10 mi
9:53 PM35 °FMostly cloudy.No wind64%29.91 "Hg10 mi
8:53 PM36 °FOvercast.7 mph59%29.90 "Hg10 mi
7:53 PM37 °FMostly cloudy.15 mph57%29.90 "Hg10 mi
6:53 PM38 °FMostly cloudy.9 mph55%29.88 "Hg10 mi
5:53 PM41 °FScattered clouds.17 mph45%29.84 "Hg10 mi
4:53 PM38 °FPassing clouds.16 mph58%29.87 "Hg10 mi
3:53 PM40 °FScattered clouds.13 mph49%29.85 "Hg10 mi
2:53 PM40 °FBroken clouds.14 mph49%29.85 "Hg10 mi
1:53 PM38 °FBroken clouds.13 mph51%29.85 "Hg10 mi
12:53 PM39 °FBroken clouds.14 mph48%29.85 "Hg10 mi
11:53 AM36 °FPartly sunny.10 mph52%29.86 "Hg10 mi
10:53 AM35 °FPartly sunny.12 mph59%29.86 "Hg10 mi
9:53 AM32 °FOvercast.9 mph64%29.87 "Hg10 mi
8:53 AM31 °FOvercast.5 mph64%29.87 "Hg10 mi
7:53 AM30 °FOvercast.8 mph69%29.85 "Hg10 mi
6:53 AM31 °FMostly cloudy.8 mph64%29.82 "Hg10 mi
Weather by CustomWeather, © 2014

See weather overview